Location: Petruro
(41.0333°N, 14.7833°E)
Time: 18:39:02
(UTC+00:00)

USA 308 - Visible Passes

Search period start: 21 October 2021 00:00
Search period end: 31 October 2021 00:00
Orbit: 566 x 573 km, 54.0° (Epoch: 23 September)

Date Brightness Start Highest point End Pass type
(mag) Time Alt. Az. Time Alt. Az. Time Alt. Az.
21 Oct 5.8 03:14:27 10° SSE 03:16:11 12° ESE 03:17:54 10° E visible
21 Oct 2.9 04:51:16 10° SW 04:55:31 89° SE 04:59:46 10° NE visible
22 Oct 5.3 03:13:54 10° S 03:16:55 19° SE 03:19:57 10° E visible
23 Oct 4.6 03:15:56 22° S 03:17:40 29° SE 03:21:23 10° ENE visible
24 Oct 3.7 03:17:42 40° SSE 03:18:30 46° SE 03:22:34 10° ENE visible
25 Oct 2.9 03:19:18 71° SE 03:19:21 71° SE 03:23:35 10° NE visible
25 Oct 4.2 04:56:04 10° W 04:59:37 25° NNW 05:03:11 10° NNE visible
26 Oct 3.0 03:20:44 67° NNE 03:20:44 67° NNE 03:24:31 10° NE visible
26 Oct 4.5 04:57:31 10° WNW 05:00:45 21° NNW 05:04:00 10° NNE visible
27 Oct 3.5 03:22:01 45° N 03:22:01 45° N 03:25:23 10° NE visible
28 Oct 4.0 03:23:14 33° N 03:23:14 33° N 03:26:12 10° NE visible
29 Oct 4.4 03:24:21 25° N 03:24:21 25° N 03:26:59 10° NE visible
30 Oct 4.7 03:25:24 21° N 03:25:24 21° N 03:27:47 10° NNE visible
